Location: Burbank
(38.7788°N, 114.0429°W)
Time: 01:25:21
(UTC+00:00)

Tiros 1 despin weight - Pass Details

Date: 12 May 2026
Orbit: 554 x 591 km, 48.2° (Epoch: 6 June)

Event Time Altitude Azimuth Distance (km) Brightness Sun altitude
Rises 18:36:10 0° 304° (NW) 2,731 ? 66.1°
Reaches altitude 10° 18:38:29 10° 311° (NW) 1,834 ? 66.4°
Maximum altitude 18:42:31 45° 25° (NNE) 758 ? 66.8°
Drops below altitude 10° 18:46:33 10° 99° (E) 1,834 ? 67.2°
Sets 18:48:52 0° 105° (ESE) 2,730 ? 67.4°
